Regional Weather Roundup
Issued by NWS

Home | Current Version | Previous Version | Text Only | Print | Product List | Glossary On
Versions: 1 2 3 4 5 6 7 8 9 10 11 12 13 14 15 16 17 18 19 20 21 22 23 24 25 26 27 28 29 30 31 32 33 34 35 36 37 38 39 40 41 42 43 44 45 46 47 48 49 50
000
ASUS45 KBOI 181010
RWRID

IDAHO REGIONAL WEATHER ROUNDUP
NATIONAL WEATHER SERVICE BOISE ID
300 AM MST WED JAN 18 2017

NOTE: "FAIR" INDICATES FEW OR NO CLOUDS BELOW 12000 FEET
WITH NO SIGNIFICANT WEATHER AND/OR OBSTRUCTIONS TO VISIBILITY

IDZ012-014-181100-
SOUTHWEST IDAHO


CITY           SKY/WX    TMP DP  RH WIND       PRES   REMARKS
BOISE          PTCLDY     9   5  84 CALM      30.12S FOG
CALDWELL       PTCLDY     6   2  83 CALM      30.17F FOG
MOUNTAIN HOME  CLOUDY    20  14  80 SE24      30.08F WCI   2
$$

IDZ016-017-181100-
SOUTHCENTRAL IDAHO


CITY           SKY/WX    TMP DP  RH WIND       PRES   REMARKS
BURLEY         CLEAR     15   9  76 NE12      30.08S WCI   2
JEROME         CLEAR     14   7  73 NE26      30.07F WCI  -6
TWIN FALLS     CLEAR     10   6  84 N3        30.07F
$$

IDZ019>023-181100-
SOUTHEAST IDAHO


CITY           SKY/WX    TMP DP  RH WIND       PRES   REMARKS
IDAHO FALLS    CLOUDY    -5  -8  87 N6        30.15F WCI -18
POCATELLO      CLOUDY     2  -1  88 NW6       30.15S WCI  -9
REXBURG        CLOUDY    -3  -6  87 E3        30.14F
$$

IDZ006-010-011-018-031-032-181100-
CENTRAL IDAHO MOUNTAINS


CITY           SKY/WX    TMP DP  RH WIND       PRES   REMARKS
MCCALL         CLOUDY    17  13  84 CALM      29.95F
HAILEY         CLEAR     16  10  79 NW8       30.09F WCI   5
STANLEY          N/A      2  -2  83 CALM      30.01F
SALMON         CLOUDY    -9  -9 100 CALM      30.13S
CHALLIS        PTCLDY    -7 -10  87 CALM      30.07F
$$

IDZ002-004-006-007-026-181100-
NORTHERN IDAHO


CITY           SKY/WX    TMP DP  RH WIND       PRES   REMARKS
LEWISTON       MIX PCPN  33  26  75 E10       29.84F WCI  25
LOWELL           N/A     28  24  85 NW5       29.92S WCI  23
COEUR D`ALENE  LGT SNOW  31  29  92 NE3       29.78F FOG
MULLAN PASS    SNOW      27  25  92 VRB6      29.72S VSB 1/2 WCI  20
$$



USA.gov is the U.S. government's official web portal to all federal, state and local government web resources and services.